Theta_e
316 318 319 320 320 321 322 322 323 323 323 324 325 325 326 326 326 327 327 328 328 327 327 327 326 326 326 326 326 325 326 326 327 328 327 327 327 326 326 325 324 323 322 321 320 320 321 320 319 317 316 316 315 315 314 312 310 307 303 299 296 295 296 295 295 295 295 295 295 295 294 293 291 289 288 288 288 288 288 287 287 286 286 286 286
313 315 317 319 320 320 321 321 321 322 323 323 324 324 325 326 326 326 327 327 327 327 326 326 325 326 326 326 326 325 325 325 326 327 327 327 326 325 325 324 322 321 320 320 319 319 319 318 316 316 315 314 315 314 313 312 310 305 300 296 294 292 292 293 294 295 294 294 294 293 293 292 290 289 288 288 288 287 287 287 287 286 285 285 285
310 311 312 315 317 318 319 319 319 319 320 321 322 323 324 324 325 325 326 326 326 326 325 325 325 325 325 326 326 325 325 325 326 326 326 326 325 324 323 323 323 322 320 319 319 318 317 316 315 314 313 312 313 313 311 309 307 302 296 293 292 291 291 290 292 294 294 293 293 292 292 291 289 288 288 287 287 287 287 287 286 286 285 285 285
311 311 311 311 313 314 315 316 316 316 316 316 318 320 321 321 322 322 323 323 324 324 324 324 325 325 325 325 325 324 324 325 325 325 326 325 325 324 323 323 323 321 320 319 318 317 316 315 314 313 312 311 311 310 308 306 302 297 292 291 291 290 290 289 289 291 292 293 292 291 291 290 289 288 287 287 287 286 286 286 286 285 285 285 284
312 312 312 311 311 312 312 312 313 314 314 314 314 316 317 318 319 320 320 321 322 323 323 323 324 324 324 324 324 324 324 324 324 324 324 324 324 322 322 322 321 320 320 320 319 318 316 315 314 313 312 310 308 308 306 300 295 292 290 290 290 289 289 289 288 289 290 291 291 291 290 289 288 287 287 287 287 286 286 286 286 285 284 284 284
313 312 312 312 312 312 311 311 311 312 312 312 311 312 313 315 317 318 319 320 321 322 322 323 324 324 324 324 323 323 323 323 323 324 324 323 322 321 321 321 320 320 320 319 318 317 315 314 313 311 310 309 308 307 301 293 290 290 289 289 289 289 289 288 287 287 288 289 289 289 289 288 288 287 287 287 287 286 286 286 286 285 284 284 284
312 312 312 312 312 311 311 311 311 311 311 311 310 310 310 311 313 315 317 319 320 321 321 322 322 322 323 322 322 322 322 322 322 322 322 321 321 321 320 320 319 319 318 317 316 314 313 313 313 311 310 309 309 306 297 290 289 290 289 289 289 288 288 287 287 287 287 287 287 288 288 288 288 288 287 287 286 286 285 285 285 285 284 284 283
312 311 311 310 310 310 309 309 309 309 309 309 309 308 308 308 310 311 313 315 317 318 319 320 320 320 321 320 320 320 320 320 320 319 319 319 319 319 318 318 319 317 315 315 314 313 313 312 311 311 310 308 308 304 295 289 289 289 288 289 288 288 288 287 286 286 286 286 287 287 287 288 288 287 287 287 286 286 285 285 284 284 284 283 283
311 310 310 309 308 307 307 306 306 306 306 306 307 308 308 309 310 311 312 313 315 317 318 318 318 318 318 318 318 318 318 318 319 319 318 318 318 318 317 317 317 316 314 314 313 312 311 310 309 308 307 307 304 299 292 289 290 290 289 288 288 288 287 287 287 286 286 286 287 287 288 288 287 287 287 286 286 285 285 284 283 283 282 283 283
310 310 308 307 306 306 305 305 304 305 306 307 308 309 311 311 312 313 313 314 315 316 316 317 317 317 316 316 316 316 317 317 317 317 317 317 317 317 315 314 314 315 314 313 311 309 308 307 306 305 304 303 299 293 290 289 290 290 290 289 288 288 287 287 287 287 287 287 287 288 288 287 287 287 287 286 285 284 284 283 282 282 281 282 282
310 309 308 307 306 305 305 305 305 305 307 308 310 311 312 312 313 314 315 315 316 316 316 316 316 316 315 315 315 316 316 316 316 316 315 315 315 315 314 313 313 313 313 312 310 308 305 304 303 302 300 296 292 290 289 289 288 288 289 288 288 288 287 287 287 287 287 287 287 288 288 287 287 287 286 285 284 284 284 282 281 281 281 280 281
309 309 308 307 306 304 304 305 306 307 308 309 310 311 312 312 313 314 314 315 315 314 314 315 315 314 314 314 314 315 315 315 314 314 313 313 313 313 312 313 313 312 312 311 309 306 303 301 299 297 295 292 290 289 289 288 288 288 287 287 287 287 287 287 287 287 287 287 287 287 287 287 286 286 285 285 284 284 283 282 281 280 280 279 279
309 308 307 306 305 304 304 305 306 307 308 310 311 311 312 312 313 313 313 313 313 313 313 313 312 312 312 312 312 313 313 313 312 312 312 311 311 310 311 312 312 312 312 309 306 303 301 298 296 294 292 290 289 289 288 288 287 287 287 287 287 287 287 286 287 287 287 287 287 287 287 286 286 285 285 284 284 283 282 281 280 280 279 279 279
308 308 307 306 305 305 304 305 307 308 309 310 311 311 311 311 311 312 312 312 312 312 311 311 311 311 310 310 310 310 310 310 310 310 310 309 309 309 310 311 311 311 309 307 304 301 299 297 295 292 290 289 289 289 288 288 287 287 287 286 286 286 286 286 286 286 286 286 286 286 286 286 285 285 284 284 284 283 282 281 280 279 279 280 280
307 307 306 305 305 305 305 306 306 308 309 310 311 311 311 311 311 311 311 311 310 310 310 309 309 309 309 309 308 308 308 308 308 308 308 308 308 308 308 308 308 307 306 304 301 299 298 296 294 292 290 289 289 288 288 287 287 287 286 286 286 286 286 286 285 285 285 286 285 285 285 285 284 284 284 284 283 282 282 281 280 279 279 279 280
306 306 305 304 304 304 305 306 306 307 308 309 310 311 311 311 311 311 311 310 310 310 310 309 308 308 308 308 308 308 308 308 307 307 307 306 306 306 305 305 305 304 303 301 299 297 296 294 293 291 290 289 288 288 287 287 287 286 286 286 286 285 285 285 285 284 285 285 285 284 284 284 284 284 283 283 283 282 281 280 279 279 278 278 279
306 306 305 304 303 303 303 304 305 306 307 308 308 309 309 310 310 310 310 310 310 310 309 308 308 307 306 306 306 307 307 307 306 306 306 306 305 304 304 303 302 302 300 298 295 294 293 292 291 290 289 289 288 287 287 286 286 286 286 286 285 285 285 285 284 284 284 284 284 283 283 283 283 283 283 282 282 281 281 280 279 279 278 278 278
305 305 304 302 302 302 302 303 305 306 307 307 308 308 308 309 309 309 309 309 308 308 308 307 307 306 306 305 305 305 305 305 305 305 305 305 304 304 303 301 300 299 297 294 292 291 290 290 289 289 288 288 288 287 287 286 286 286 286 286 285 285 285 284 284 284 284 284 283 283 283 283 282 282 282 282 281 281 280 280 279 279 278 278 277
305 304 303 302 301 301 301 302 303 305 305 306 307 307 308 307 308 308 308 308 308 307 307 306 306 306 305 305 304 304 304 304 304 305 305 304 303 303 302 300 298 296 294 292 290 290 289 289 288 288 288 288 287 287 286 286 286 286 286 285 285 285 285 285 284 284 284 284 283 282 282 282 282 282 282 282 281 281 280 280 279 279 278 278 277
304 303 303 301 300 300 301 301 303 304 304 305 305 306 306 306 306 306 306 306 306 305 305 305 304 304 304 303 303 303 303 304 304 304 304 304 303 302 301 299 297 295 294 292 291 289 288 288 288 287 287 287 286 286 286 286 286 286 286 286 285 285 285 285 285 284 284 283 283 282 282 282 281 282 282 281 281 281 280 280 279 278 278 277 277
303 302 302 301 299 299 299 300 301 302 303 304 304 305 305 305 305 305 304 303 303 303 303 303 303 303 302 302 302 302 302 302 303 303 303 303 301 300 299 299 297 295 294 293 291 290 288 288 287 287 286 286 286 286 286 286 286 286 286 286 286 286 285 285 285 284 283 282 282 282 281 281 281 281 281 281 281 281 280 280 279 278 277 277 277
302 302 302 300 298 298 298 299 299 300 302 303 304 304 304 304 304 304 303 302 302 302 302 302 301 301 300 300 300 301 301 301 301 301 301 300 299 298 297 297 296 294 293 292 291 289 288 287 287 286 286 286 286 286 286 286 286 286 286 285 285 285 285 285 284 284 283 282 281 281 281 281 280 280 280 280 280 280 280 280 279 278 277 277 276
302 301 301 300 298 297 297 297 297 298 300 301 302 303 302 303 303 302 302 301 301 300 300 300 299 299 299 299 299 300 301 300 299 299 298 297 296 296 296 296 295 292 291 290 290 289 288 287 287 286 286 285 286 286 286 285 285 285 285 285 285 285 285 284 283 283 282 281 281 281 281 280 280 280 280 280 280 280 280 279 279 279 278 277 277
301 301 300 300 299 297 296 296 296 297 298 300 300 300 300 300 300 300 299 299 298 297 297 297 297 296 296 296 297 298 299 299 298 297 296 295 295 294 294 294 294 291 290 289 289 288 287 286 286 286 286 285 285 285 285 285 285 285 285 285 284 284 284 284 283 282 281 281 281 280 280 280 280 280 280 280 280 279 279 279 279 278 278 277 277
300 300 299 299 298 296 294 294 295 295 297 298 299 299 298 298 298 297 297 296 295 295 294 294 294 294 294 294 295 296 296 296 296 296 296 296 296 295 294 293 292 291 289 288 287 287 286 286 286 286 285 285 285 284 284 284 285 284 284 284 284 284 284 283 282 281 281 281 280 280 280 280 280 280 280 280 279 279 278 278 278 278 277 277 277
299 299 298 297 297 295 293 293 293 294 295 297 297 297 298 297 296 295 295 295 294 294 294 293 293 293 293 294 294 294 294 293 293 293 294 294 294 294 292 291 291 290 289 287 287 286 286 286 286 286 285 285 285 284 284 284 284 284 285 285 284 284 283 282 281 281 281 281 280 280 280 279 279 279 279 278 278 278 278 278 277 277 277 277 277
298 297 297 296 295 294 293 292 292 293 294 295 295 295 296 296 296 295 295 295 294 294 293 293 292 292 293 293 293 293 292 291 291 292 292 292 291 291 290 290 289 289 288 287 286 286 285 285 285 285 285 285 284 284 284 284 284 285 285 285 284 283 282 281 281 281 281 281 280 279 279 279 278 278 278 278 278 278 278 277 277 277 277 276 276
298 296 296 295 295 294 294 293 293 292 292 293 293 294 294 294 294 294 294 294 294 294 293 293 292 292 292 291 291 291 290 290 290 290 290 290 290 290 289 289 288 288 287 286 286 285 285 285 285 284 284 284 284 283 284 284 284 285 285 284 283 282 281 281 281 281 281 280 279 278 278 278 278 277 278 278 278 278 277 277 277 277 277 276 276
296 295 295 295 294 293 293 294 293 293 292 291 292 292 293 293 293 293 293 293 293 293 292 292 291 290 290 290 289 289 289 289 289 289 289 289 289 289 289 289 288 288 287 286 285 285 284 284 284 284 283 283 283 283 283 284 284 284 284 283 282 282 281 281 280 280 280 279 278 278 277 277 277 277 277 277 277 277 277 277 277 276 276 275 275
294 293 294 294 293 292 292 292 292 293 292 291 291 290 291 292 292 292 292 292 291 291 291 291 290 290 290 289 289 288 288 288 288 288 287 287 287 288 288 288 288 287 287 286 285 285 284 283 283 283 283 283 283 283 283 283 283 283 283 282 282 281 281 280 280 280 279 278 278 277 276 276 276 276 276 276 277 276 276 276 276 276 275 275 274
293 291 292 293 292 292 292 291 291 292 292 291 291 291 290 290 290 290 290 290 290 290 290 290 290 290 289 289 289 288 288 287 287 287 287 286 286 286 286 286 287 287 286 286 285 284 284 283 283 282 283 282 282 283 283 282 282 282 281 281 281 280 280 280 279 278 277 277 276 275 275 275 275 275 275 275 275 275 275 275 275 275 275 274 274
293 291 292 293 292 292 292 291 290 290 290 290 291 290 290 289 288 288 288 288 288 289 289 289 289 289 289 288 288 288 288 287 287 286 286 285 285 284 285 285 285 286 286 286 285 284 284 283 282 282 282 282 282 282 282 282 281 281 280 280 279 279 279 278 278 277 276 276 275 274 274 274 274 274 274 274 274 274 273 274 274 274 274 274 273
294 293 292 292 291 291 291 290 290 290 290 289 289 289 288 288 288 287 286 286 287 287 288 288 288 288 288 288 287 287 287 287 286 286 285 284 284 283 283 283 284 284 285 285 284 284 284 283 282 282 282 282 282 282 281 281 281 280 279 279 279 278 278 278 277 276 276 275 275 274 274 274 274 274 273 273 273 273 273 273 273 273 273 273 272
294 293 292 291 289 289 290 289 289 288 288 288 287 287 287 287 287 287 286 286 286 286 287 287 287 287 287 287 286 286 286 286 285 285 284 284 283 283 282 282 282 283 284 284 284 284 283 283 282 282 282 282 281 281 281 281 281 280 280 279 279 278 278 277 277 276 276 275 274 274 273 274 274 273 273 273 273 273 273 273 273 272 272 272 272
291 290 290 289 288 287 287 287 287 286 286 286 286 286 286 286 286 286 286 285 285 285 285 285 285 285 286 285 285 285 285 285 284 284 283 283 282 282 282 282 282 283 284 284 284 284 283 283 282 282 282 282 281 281 281 281 281 280 280 279 279 278 278 277 276 276 275 275 274 274 273 273 273 273 273 273 273 273 272 272 272 272 272 272 272
289 287 287 287 286 286 285 285 285 285 285 285 285 285 285 285 285 285 285 284 284 283 283 283 283 283 283 283 283 283 283 283 283 282 282 282 282 282 282 282 282 282 283 283 283 284 283 283 283 283 282 282 282 281 281 281 281 280 280 280 279 278 278 277 277 276 275 274 274 274 273 273 273 273 273 273 273 272 272 272 272 272 273 273 272
288 287 286 286 286 286 286 286 285 285 285 285 285 285 284 284 284 283 283 282 282 282 282 282 282 282 282 282 282 282 282 282 282 282 281 281 282 283 283 282 282 282 282 282 282 283 283 283 283 283 283 283 282 282 282 281 281 281 280 280 279 279 278 278 278 277 275 275 274 274 273 273 273 273 272 272 272 272 272 272 272 272 272 272 272
288 288 287 287 287 287 286 286 285 285 285 284 284 283 283 282 282 282 281 281 281 281 281 281 281 281 281 281 281 281 281 281 281 281 281 281 281 282 282 282 282 282 282 282 282 282 282 282 282 283 283 283 283 282 282 282 281 281 280 280 279 279 279 278 278 277 276 275 274 274 273 273 272 272 272 272 272 272 271 272 272 272 272 272 271
287 286 286 286 286 286 286 285 284 284 284 283 282 282 282 281 281 281 281 281 280 280 280 280 280 280 280 280 280 280 280 280 280 280 281 281 281 281 281 282 282 282 282 282 282 282 282 282 282 282 282 282 282 282 282 282 282 281 281 280 279 279 278 278 277 277 276 275 275 274 273 273 272 272 271 271 271 271 271 271 272 272 271 271 271
285 284 284 285 285 285 285 284 283 283 283 282 282 282 281 281 281 280 280 280 280 280 279 279 279 279 279 279 279 279 279 279 279 279 279 280 280 280 281 281 281 282 282 282 282 282 282 282 282 282 282 282 282 282 282 282 282 281 281 280 280 279 278 278 277 277 276 275 275 274 273 272 272 271 271 271 271 271 271 271 271 271 271 271 271
285 284 284 284 284 283 283 283 282 282 282 281 281 281 281 280 280 280 280 279 279 279 279 278 278 278 278 278 278 278 278 278 278 278 278 278 279 279 280 280 281 281 281 281 282 282 282 282 282 282 282 282 282 282 282 281 281 281 281 280 280 279 278 278 277 276 276 275 274 273 273 272 272 271 271 271 270 270 270 270 271 271 271 271 271
284 283 282 282 282 282 282 281 281 281 281 281 281 280 280 279 279 279 279 279 278 278 278 277 277 277 277 277 277 277 277 277 277 277 277 277 277 278 278 278 279 279 279 280 280 280 280 280 281 281 281 281 281 281 281 281 281 280 280 280 279 279 278 277 277 276 276 275 274 273 273 272 272 271 271 270 270 269 269 270 270 270 270 270 270
283 282 282 281 282 282 282 281 280 280 280 280 279 279 279 279 278 278 278 277 277 277 277 277 276 276 276 276 276 276 276 276 276 276 276 276 276 277 277 277 277 277 278 278 278 278 278 278 278 279 279 279 279 280 280 280 280 280 279 279 279 278 278 277 277 276 275 275 274 274 273 272 272 271 270 270 269 269 269 269 269 269 270 269 269
283 282 282 281 281 281 280 280 279 279 279 278 278 278 278 278 277 277 277 276 276 276 276 276 276 275 275 275 275 275 275 275 275 275 275 275 275 275 275 275 276 276 276 276 276 276 276 276 276 276 277 277 277 277 278 278 278 278 278 278 278 277 277 277 276 276 276 275 275 274 273 272 271 271 270 269 269 268 268 268 268 269 269 269 269
282 282 281 280 280 279 278 278 278 278 278 278 278 277 277 277 276 276 276 275 275 275 275 275 275 274 274 274 274 274 274 274 274 274 274 274 274 274 274 274 274 274 274 274 274 274 274 274 274 274 274 274 275 275 275 276 276 276 276 277 277 276 276 276 276 275 275 275 274 273 273 272 271 271 270 269 269 268 268 268 268 268 268 268 268
281 280 280 279 279 278 278 278 278 278 278 277 277 276 276 275 275 275 275 274 274 274 274 274 274 273 273 273 273 273 273 273 273 273 273 272 272 272 272 272 272 272 272 272 272 272 272 272 272 272 272 272 273 273 273 273 273 274 274 275 275 275 275 275 275 274 274 274 273 273 272 271 271 271 270 269 269 268 268 268 268 268 268 268 268
279 279 279 278 278 278 277 277 277 277 277 276 276 276 275 275 274 274 274 273 273 273 272 272 272 272 272 272 272 272 272 271 271 271 271 271 271 271 271 271 271 271 271 271 271 271 271 271 271 271 271 271 271 271 271 271 272 272 272 272 273 273 273 273 273 273 273 273 272 272 271 271 270 270 270 269 268 268 267 267 267 267 267 267 268
278 278 278 277 277 277 277 276 276 276 276 275 275 274 274 274 273 273 272 272 272 271 271 271 271 271 271 271 271 270 270 270 270 270 270 270 270 270 270 270 270 270 270 270 270 270 269 269 269 269 269 269 269 269 269 270 270 270 270 270 271 271 271 271 272 272 272 272 271 271 270 270 270 269 269 269 268 267 267 267 267 267 267 267 267
277 277 277 277 277 277 276 276 276 275 275 274 274 273 273 272 272 271 271 271 270 270 270 270 270 270 269 269 269 269 269 269 269 269 269 269 269 269 268 268 268 268 268 268 268 268 268 268 268 267 267 267 267 268 268 268 268 268 268 268 268 269 269 269 270 270 270 270 270 270 269 269 269 269 269 268 268 267 267 266 266 266 266 266 266
276 276 276 276 275 275 275 274 274 274 273 273 272 272 271 271 270 270 270 269 269 269 269 269 268 268 268 268 268 268 268 268 268 268 268 268 267 267 267 267 267 267 267 267 266 266 266 266 266 266 266 266 266 266 266 266 267 267 267 267 267 267 267 267 268 268 268 269 269 269 268 268 268 268 268 267 267 266 266 266 266 266 266 266 266
275 275 275 274 274 274 273 273 272 272 271 271 271 270 270 269 269 269 268 268 268 268 268 267 267 267 267 267 267 266 266 266 266 266 266 266 266 266 265 265 265 265 265 265 265 264 264 264 265 265 265 265 265 265 265 266 266 266 266 266 266 266 266 266 266 266 267 267 267 267 267 267 267 267 267 267 266 266 266 266 266 265 265 265 265
Wind_Speed
18 19 20 21 22 24 25 26 26 26 26 26 26 26 27 27 25 24 24 25 26 27 27 27 27 27 28 30 31 32 33 35 37 36 36 35 35 35 35 34 32 32 31 31 30 30 30 31 30 29 29 28 26 25 26 27 26 25 25 24 23 21 19 15 11 8 9 11 16 18 17 16 14 13 13 11 8 6 4 3 3 5 6 7 8
18 19 20 21 22 23 23 24 24 24 24 24 25 25 24 24 24 23 22 22 23 24 25 25 26 26 28 29 29 31 32 35 36 37 36 36 35 36 35 34 31 29 29 29 29 28 28 30 30 29 29 28 26 25 26 27 28 27 27 26 24 22 21 19 15 12 12 13 15 16 16 16 14 13 12 9 7 5 5 4 3 5 7 7 8
16 18 19 20 21 20 20 21 21 23 23 23 24 25 24 24 23 23 23 23 23 24 25 27 27 27 28 29 29 31 32 34 35 36 36 36 35 35 35 33 31 31 32 31 29 29 28 29 29 29 29 27 26 25 25 27 29 29 28 27 24 22 21 20 18 16 15 14 14 15 16 15 13 11 10 8 6 6 6 5 4 6 8 7 7
14 15 16 18 18 18 18 19 20 21 22 23 24 24 25 25 25 25 25 25 25 25 26 27 28 29 31 31 31 32 32 33 34 35 35 35 35 36 36 35 34 34 34 32 30 29 29 30 31 30 29 27 26 25 24 27 30 30 28 26 23 21 21 21 21 19 17 15 14 14 14 14 12 10 9 8 7 7 7 5 4 7 8 7 6
15 15 15 16 17 18 18 18 19 20 21 21 22 22 22 23 24 25 25 26 26 27 27 28 29 30 31 31 31 31 31 32 32 33 34 35 36 37 36 34 34 34 33 32 31 31 31 32 33 33 32 29 27 25 25 29 31 30 28 26 23 21 21 21 22 20 18 17 16 14 14 14 12 10 9 8 8 8 8 6 5 8 9 7 6
15 16 16 16 17 18 19 20 20 21 21 21 21 20 20 21 21 22 23 24 25 25 26 27 29 29 30 30 29 29 29 30 31 32 33 34 35 34 34 34 34 33 33 33 33 33 33 34 34 33 32 30 28 28 29 32 32 30 28 25 22 21 21 21 21 21 19 18 17 16 14 13 11 9 8 9 10 9 8 7 7 9 10 9 8
14 15 15 16 17 17 18 19 19 20 20 20 20 19 20 20 21 21 21 22 22 23 24 25 26 27 27 27 27 27 28 29 30 30 32 32 33 33 34 35 33 32 33 33 31 31 31 32 33 33 32 31 30 31 34 34 33 30 27 24 23 22 21 21 21 21 21 19 19 17 14 12 10 9 9 10 10 8 7 9 10 10 9 10 10
14 14 14 15 15 16 15 15 15 15 15 15 15 15 16 17 18 19 20 20 20 20 20 21 23 24 25 25 25 25 26 26 27 28 29 30 32 32 33 33 32 31 31 29 28 28 30 31 32 32 32 31 31 34 37 36 33 29 26 24 23 22 22 21 21 21 20 19 18 16 13 12 11 10 10 11 10 8 7 9 12 13 12 12 9
14 14 14 14 14 13 12 11 11 11 11 11 11 11 11 11 13 14 16 17 18 19 19 19 20 21 22 22 22 23 24 25 26 27 28 30 31 31 32 33 32 31 29 27 26 28 29 30 31 31 30 30 31 34 35 34 31 28 26 25 24 23 22 21 21 21 20 19 17 15 14 14 13 13 13 13 11 10 9 10 12 13 14 13 6
15 15 15 15 13 11 9 9 8 8 8 9 9 9 9 10 10 12 13 14 15 17 17 17 18 19 19 20 20 21 23 24 25 26 28 30 30 31 33 32 30 29 28 27 26 27 29 29 29 29 28 29 31 33 32 30 28 25 23 23 23 23 23 23 23 22 21 20 20 18 17 17 16 15 16 14 11 11 10 11 12 12 14 13 5
16 17 16 14 12 10 8 8 7 6 7 8 8 9 9 10 10 11 12 12 13 15 15 16 17 17 18 18 19 20 21 23 24 25 26 28 30 31 32 30 29 28 27 26 27 28 28 28 28 27 28 30 31 31 29 28 26 23 21 20 20 21 22 24 24 23 23 22 20 19 19 18 17 16 15 13 12 12 11 10 11 11 11 10 6
17 17 16 13 11 10 8 7 6 6 7 8 9 9 9 10 9 10 10 11 12 13 13 14 15 15 16 17 18 19 20 21 22 23 25 26 28 30 30 30 28 26 25 25 27 28 28 28 28 28 30 31 31 29 28 26 25 23 22 21 20 20 21 22 23 23 23 23 21 20 20 19 17 16 14 13 12 12 11 10 10 10 9 10 11
18 17 15 13 12 11 9 7 7 7 8 8 8 8 8 9 9 9 9 10 11 12 12 13 14 14 15 16 17 18 19 20 21 22 24 26 27 28 28 28 26 24 25 26 28 28 29 30 30 30 31 31 30 29 28 26 25 23 22 22 22 22 23 23 22 22 22 22 21 20 19 17 16 16 15 14 13 12 12 11 10 10 10 12 14
18 17 15 14 14 13 11 9 9 9 9 9 8 8 8 8 8 8 8 9 10 11 11 12 12 13 14 15 17 18 18 19 20 21 23 25 26 27 26 26 25 24 25 26 27 29 31 32 33 33 33 33 31 30 29 27 26 25 24 24 23 23 24 23 23 22 21 21 20 19 17 16 15 16 16 15 13 12 12 12 11 11 12 13 14
18 17 17 16 16 15 13 12 11 11 10 10 9 9 8 9 8 8 8 8 9 9 10 10 11 12 13 14 15 16 17 18 18 20 21 23 25 26 25 25 23 23 24 25 27 29 31 33 35 36 35 35 34 32 30 28 27 26 25 25 24 24 24 23 23 22 21 20 20 17 16 16 16 16 16 14 14 13 12 12 11 11 12 13 13
18 18 18 18 17 16 15 14 13 12 12 11 10 9 9 9 9 8 8 8 9 9 10 10 10 11 12 13 14 16 17 17 18 19 20 22 23 24 24 23 22 22 23 25 27 29 31 33 35 36 35 35 33 31 30 28 28 27 26 25 24 24 24 23 21 21 20 20 19 17 17 17 17 16 15 14 14 13 11 11 11 9 9 12 14
19 19 18 18 17 16 15 14 13 13 12 11 11 10 9 8 8 8 9 9 9 10 10 10 10 10 11 12 14 15 16 17 18 18 20 21 22 22 23 22 22 23 23 25 26 28 30 33 34 34 34 33 32 31 30 29 28 27 26 25 24 23 23 21 20 20 20 20 19 18 18 18 17 16 15 14 13 12 11 11 10 8 8 9 10
21 20 19 17 16 15 15 14 13 13 12 11 11 10 10 10 9 8 9 9 9 10 11 11 12 12 12 12 13 15 16 17 17 17 18 19 20 22 23 23 23 23 23 24 25 27 29 31 32 33 33 32 31 30 30 29 28 27 26 25 24 24 23 21 20 20 20 19 19 19 19 18 17 16 15 13 12 12 12 11 9 9 10 10 9
21 19 17 15 15 15 14 14 13 13 13 11 10 10 9 9 9 9 9 9 9 10 11 11 12 12 13 13 14 15 16 17 17 17 17 19 20 22 23 23 24 24 23 23 25 26 28 30 31 31 31 30 30 30 30 30 29 28 27 26 26 27 26 23 21 21 21 21 20 20 20 19 18 17 16 14 13 14 13 12 11 12 12 12 11
18 15 13 12 13 14 14 14 14 14 13 11 10 10 9 8 8 9 9 9 10 10 10 11 12 12 13 13 13 14 16 17 17 17 17 18 19 21 24 25 25 25 24 24 26 27 29 30 30 30 30 29 29 29 30 29 28 28 28 28 29 28 26 23 23 22 22 21 21 20 20 20 20 18 16 16 16 15 13 12 13 13 13 13 12
14 13 11 11 12 14 14 14 14 14 13 12 11 11 10 9 8 8 8 8 9 9 9 10 11 12 12 13 13 14 15 16 17 18 18 19 20 21 24 26 26 25 25 26 27 29 30 30 29 29 29 28 28 28 29 29 28 28 29 29 29 27 24 23 22 21 21 21 21 20 20 20 20 19 18 17 17 16 14 13 13 13 14 14 13
14 13 12 12 13 14 15 15 15 14 14 14 13 13 11 10 9 8 8 8 7 7 8 8 10 11 12 13 13 14 15 16 18 19 19 19 19 20 23 25 25 23 23 25 27 28 29 29 28 28 28 28 28 28 28 28 28 29 30 30 28 26 23 22 21 21 22 22 22 21 21 21 21 20 20 19 18 16 15 14 13 13 14 15 14
15 14 14 14 15 16 16 16 16 16 16 15 14 13 13 11 11 10 10 9 8 8 8 8 9 10 11 12 13 14 15 16 17 18 18 18 17 18 21 24 24 21 21 23 25 26 26 26 26 26 27 27 28 28 28 28 29 31 31 29 28 26 23 22 21 22 23 22 22 23 23 23 23 22 21 20 18 17 15 14 14 13 14 14 15
17 16 16 15 15 16 16 15 15 16 15 15 14 13 13 12 11 11 10 10 9 8 7 7 8 8 10 11 12 13 15 15 15 16 16 16 16 17 18 21 23 22 20 21 22 23 22 23 24 25 26 27 28 28 27 28 29 30 30 29 27 25 25 25 24 23 23 23 24 25 25 25 24 23 21 19 17 17 16 15 14 13 13 14 14
19 19 18 16 15 16 16 15 14 14 14 14 14 13 12 12 11 10 9 9 8 7 6 6 6 7 9 10 12 13 13 14 14 14 15 15 16 17 17 18 21 23 22 20 19 20 20 21 23 24 25 26 27 27 27 27 28 30 30 29 27 26 27 27 25 25 26 26 26 26 26 25 24 22 20 18 17 18 17 16 14 13 14 14 15
21 20 19 17 16 16 16 15 13 13 13 12 12 11 11 10 9 8 7 7 6 6 6 6 6 8 9 11 12 12 12 12 13 14 15 16 16 16 17 18 20 23 25 23 20 19 20 21 21 23 24 24 25 27 28 28 29 30 30 29 28 28 29 27 26 27 28 28 27 26 25 24 22 21 20 19 19 19 18 16 15 14 14 14 14
21 21 20 18 16 15 16 16 14 13 12 11 11 10 9 9 8 8 7 7 7 7 7 8 8 9 10 11 12 12 12 12 13 14 15 16 16 16 17 18 19 23 26 26 24 22 21 21 22 23 23 23 24 26 28 29 29 31 31 30 29 28 28 28 27 28 28 28 27 26 24 23 22 22 22 21 21 20 19 18 17 16 15 14 13
22 21 20 19 17 15 15 15 15 14 13 12 11 11 10 10 10 9 8 8 8 9 9 9 9 9 10 10 10 10 11 12 12 13 14 15 15 15 16 17 19 22 25 26 26 24 23 22 22 22 22 22 24 26 28 30 31 31 31 30 29 28 27 27 27 28 28 28 26 24 24 24 24 24 24 23 22 22 20 20 19 17 15 13 13
21 21 20 19 18 16 15 15 15 15 15 13 11 9 8 8 9 8 7 6 7 8 8 8 8 8 8 8 9 10 10 11 11 11 12 13 14 15 16 17 18 20 22 24 24 23 22 22 22 22 23 24 26 27 29 30 30 29 29 29 28 28 28 29 30 31 30 28 27 26 26 26 26 25 25 24 24 23 21 21 19 17 15 14 15
22 21 20 20 19 18 17 16 15 15 16 16 14 11 8 6 6 6 6 6 6 7 7 8 8 9 9 9 9 9 10 10 11 12 12 13 14 15 16 16 17 18 19 20 21 22 22 23 24 25 25 26 26 27 27 27 26 26 27 28 29 29 30 31 32 32 30 29 29 28 27 27 27 27 26 26 25 23 22 21 19 17 16 16 16
23 21 20 20 20 19 19 18 16 15 16 15 14 13 11 8 6 5 5 5 6 7 8 9 10 11 12 12 12 12 12 13 14 15 14 14 14 14 14 15 16 17 18 19 20 22 23 24 24 25 25 25 25 24 24 24 25 26 27 28 30 31 32 33 33 31 30 28 28 27 26 27 27 27 27 26 25 24 23 21 19 19 19 18 18
23 21 20 20 19 18 19 19 18 16 16 15 14 13 13 12 10 7 5 4 3 3 4 5 7 8 9 11 12 13 13 14 15 16 15 15 13 12 13 14 15 17 18 19 21 23 24 24 24 23 23 24 24 24 23 24 26 26 26 27 29 30 32 32 31 29 29 28 28 27 27 27 26 25 25 25 24 22 22 21 20 20 20 19 19
22 22 21 21 19 18 18 19 18 17 17 16 15 14 13 14 14 12 8 5 3 3 2 1 1 2 4 5 7 9 10 11 12 14 15 15 14 13 12 13 14 16 17 19 22 23 24 24 24 23 23 24 24 24 24 25 26 26 27 28 30 31 32 33 31 30 30 30 29 29 29 28 27 25 24 22 21 21 21 22 22 21 20 20 20
20 21 21 21 20 18 17 17 16 15 14 14 14 13 12 12 12 11 9 7 5 4 2 1 1 1 2 2 3 5 6 7 9 10 12 13 14 13 13 13 14 15 16 20 23 24 24 24 23 23 24 24 24 24 25 25 26 27 29 31 32 33 33 33 33 33 33 32 31 31 31 30 28 27 26 25 24 24 24 25 24 22 21 21 20
19 19 18 18 18 16 15 15 14 13 13 12 12 11 10 9 8 7 7 5 4 3 2 1 2 3 3 4 4 4 4 4 6 7 9 10 11 11 12 13 14 15 17 20 23 23 23 23 23 23 24 24 24 24 25 26 27 28 30 31 32 32 32 32 33 34 33 32 32 32 32 31 31 30 30 29 28 28 28 26 25 24 23 23 22
20 19 18 17 17 16 15 14 14 13 12 12 10 9 8 7 6 5 4 3 3 2 2 2 3 3 4 5 5 5 5 4 4 5 6 8 8 9 11 14 16 17 19 21 23 23 23 23 24 24 24 24 24 24 25 26 27 28 30 31 31 31 32 33 34 34 32 32 32 32 31 32 32 31 31 30 30 30 29 28 27 26 26 25 24
21 21 19 18 17 17 16 15 13 12 11 10 9 8 8 7 6 5 4 4 3 2 2 3 4 5 5 5 5 6 6 5 4 4 4 5 7 9 13 15 17 18 19 21 21 22 23 23 24 24 25 25 25 26 26 27 28 29 30 31 31 32 33 34 34 34 33 32 32 32 33 34 34 33 32 31 30 29 29 29 28 27 26 26 24
20 20 19 18 17 16 16 14 13 11 10 10 9 8 8 7 6 6 5 4 2 2 3 4 5 6 6 5 5 5 7 6 6 5 5 4 5 8 12 15 17 19 20 21 21 21 23 23 24 24 25 25 26 26 27 28 28 29 30 31 31 32 33 33 33 33 32 32 33 34 35 35 35 34 33 32 32 31 31 30 29 28 26 25 24
21 20 19 18 17 16 16 15 14 12 12 11 9 9 8 7 6 5 4 3 2 2 3 4 4 4 5 5 5 5 7 7 7 6 6 6 6 8 10 14 16 19 20 21 21 22 23 23 24 25 25 26 27 27 28 28 29 29 30 31 31 32 32 32 32 32 33 33 34 35 35 35 34 34 33 34 34 33 32 32 32 30 28 27 27
23 21 19 18 17 17 16 16 15 14 13 11 10 9 9 8 7 5 4 3 2 1 2 3 4 4 4 6 6 6 8 9 8 8 8 8 9 9 11 13 16 18 20 21 22 22 23 24 24 25 26 27 28 28 28 29 29 30 30 30 31 32 32 32 33 33 33 34 34 34 34 34 33 32 33 35 36 35 33 33 33 32 30 29 27
23 22 20 18 18 18 17 16 15 14 12 11 10 9 8 7 6 5 4 2 1 1 2 4 4 4 5 6 6 6 8 9 9 10 10 10 11 11 12 14 15 16 18 19 20 21 22 23 24 25 26 27 28 28 29 29 29 29 30 31 31 32 33 32 32 33 33 33 33 32 33 33 32 32 34 36 36 34 32 31 31 30 29 28 26
22 22 21 19 18 17 17 16 14 12 11 10 9 8 7 6 5 4 3 2 1 1 2 4 4 4 5 6 6 6 8 9 10 11 11 11 12 13 13 14 15 17 18 19 20 21 22 23 24 24 25 26 26 27 28 29 29 29 30 31 31 32 33 32 32 32 31 31 31 31 32 32 32 34 35 35 33 32 32 31 29 29 28 27 26
22 22 20 19 17 16 16 15 14 12 12 10 9 8 7 6 5 4 2 2 0 2 3 5 5 5 6 7 7 8 8 9 9 11 12 12 13 14 14 15 16 16 17 19 19 20 22 23 24 25 25 25 25 26 27 27 28 28 29 30 30 31 32 32 31 31 30 30 31 31 32 32 32 33 34 33 32 31 31 31 30 29 29 28 27
21 21 20 18 17 16 15 14 13 12 11 9 8 7 6 5 5 4 2 1 1 3 4 5 6 7 8 8 8 9 9 9 10 11 12 13 14 15 16 17 17 18 18 19 20 21 22 24 25 26 26 26 25 26 26 26 26 26 27 28 29 31 31 31 30 30 30 30 31 32 32 32 32 32 33 32 31 31 30 31 31 30 29 28 27
20 20 20 19 18 16 15 14 12 11 10 9 8 7 6 4 4 3 1 1 2 3 4 5 6 8 9 9 9 9 10 11 11 13 13 14 16 16 17 18 18 19 20 21 21 22 23 24 25 27 28 27 26 26 26 26 26 26 27 27 28 29 30 29 29 28 28 29 30 31 31 31 31 32 32 32 31 32 32 32 31 31 29 28 28
20 20 19 19 18 16 14 13 11 10 9 8 7 7 5 3 2 2 2 3 3 4 5 6 7 8 9 9 10 10 11 12 13 14 15 15 16 17 17 18 19 20 20 21 21 22 22 23 24 25 27 28 28 27 27 27 26 27 27 27 28 29 29 29 28 28 28 28 29 29 30 31 32 33 33 32 32 32 32 32 31 30 30 29 28
18 18 17 17 16 15 13 12 10 9 8 7 6 6 5 3 3 2 3 3 4 5 6 7 8 8 9 10 10 11 12 13 14 15 16 17 17 17 18 18 19 20 20 20 20 21 21 22 22 24 25 27 27 27 27 26 26 26 27 27 28 29 29 29 29 28 28 28 29 29 30 31 31 32 32 32 32 32 32 31 31 31 30 29 28
17 16 16 15 14 13 12 10 9 8 7 6 5 4 3 3 3 3 4 4 5 6 7 7 8 8 9 10 11 11 12 14 15 15 16 17 17 17 17 18 19 20 20 21 21 21 22 22 23 24 25 26 27 27 27 27 26 26 26 26 27 28 28 28 28 27 27 28 29 29 29 30 31 32 31 32 33 32 31 31 30 30 30 29 28
14 14 13 12 11 10 9 8 7 6 5 5 4 3 3 3 3 4 4 5 5 6 7 8 8 9 9 10 11 12 13 14 15 15 15 16 16 17 17 18 19 19 20 21 22 22 22 23 24 24 25 26 26 26 27 27 27 27 27 27 27 27 27 27 27 27 26 27 29 29 28 29 31 31 31 32 32 32 31 31 30 30 30 29 27
12 11 11 10 9 8 7 6 5 5 4 3 3 3 3 3 4 3 4 5 5 6 7 8 8 9 9 10 12 13 14 14 14 15 15 16 17 17 18 18 18 19 20 21 22 22 23 23 23 24 24 24 25 25 26 26 26 27 27 28 27 27 26 26 26 26 26 26 27 28 28 28 29 30 30 30 30 31 30 30 29 29 29 29 28
10 10 9 8 7 6 6 5 4 4 3 3 2 2 2 3 3 4 5 6 6 7 7 8 8 9 10 11 12 13 13 13 14 14 15 16 17 17 18 18 19 20 21 22 22 22 22 22 22 22 23 23 24 25 26 26 27 27 28 28 27 27 26 25 25 25 25 26 27 27 27 27 28 29 28 28 28 29 29 29 29 29 28 28 28
Wind_Direction
210 213 215 218 223 225 227 227 227 229 231 232 234 236 236 236 238 241 241 237 233 231 231 232 234 235 236 236 234 234 232 229 227 226 224 224 224 223 222 220 218 216 214 212 210 210 210 211 212 213 213 212 214 220 224 225 224 215 212 213 211 211 210 206 203 192 188 200 207 212 220 228 238 249 250 246 246 263 292 306 322 348 354 358 1
215 216 216 218 222 225 228 229 229 230 231 234 236 238 239 237 239 242 242 239 236 236 240 242 243 243 241 238 238 239 236 231 228 225 224 223 221 219 217 213 212 212 209 208 207 207 210 211 211 211 212 213 218 224 226 226 223 216 212 212 212 213 214 213 210 200 193 194 201 212 222 230 238 245 247 248 253 278 302 305 321 346 350 350 349
222 223 221 223 226 229 233 235 235 236 236 237 239 241 243 243 242 243 243 243 243 245 249 248 246 248 247 246 246 245 241 234 229 226 224 222 219 217 215 213 215 216 212 209 209 209 209 209 210 209 210 213 218 224 227 224 217 211 209 211 212 212 214 216 214 210 205 201 206 218 225 232 239 242 250 257 263 289 307 306 324 343 340 333 326
223 225 225 228 231 233 237 238 239 242 242 242 240 241 244 245 246 247 248 249 249 248 247 245 247 250 250 250 250 248 242 235 230 227 224 222 220 218 215 215 217 217 214 212 211 211 209 210 213 213 213 215 218 222 224 217 209 206 206 209 209 209 211 214 216 216 212 205 209 219 225 232 240 243 249 253 261 288 302 298 314 329 323 311 308
224 227 229 232 235 235 237 238 239 242 244 245 244 243 245 245 246 247 248 249 249 247 245 245 246 248 248 250 251 247 242 237 232 229 227 225 224 220 216 215 215 214 216 218 217 216 216 216 215 213 214 215 217 220 217 207 203 203 205 206 206 206 209 212 215 218 216 211 210 214 222 230 235 240 245 245 254 276 287 283 296 313 309 302 306
228 231 233 235 237 237 237 237 237 239 242 245 246 244 243 244 245 246 246 247 249 249 248 247 247 247 250 252 252 248 244 239 235 233 231 228 224 221 220 218 216 215 217 219 219 219 219 218 215 214 215 217 219 218 209 201 200 201 202 203 204 205 207 210 213 215 218 220 217 215 220 226 230 236 237 239 252 270 282 279 286 302 306 311 319
232 232 234 235 236 238 239 241 241 242 245 246 247 245 241 240 240 242 245 247 249 251 251 252 251 251 252 252 251 250 246 242 238 234 231 227 222 222 221 218 215 216 218 217 218 219 219 218 219 221 222 224 224 216 204 198 199 201 202 203 203 206 208 210 211 213 216 219 219 221 221 220 226 231 229 235 251 268 279 283 293 304 311 321 328
233 233 235 236 239 239 241 244 246 247 250 250 252 252 247 243 240 241 243 246 251 254 256 257 256 254 254 253 251 248 245 243 241 237 231 227 224 223 220 216 214 215 216 216 218 221 222 224 225 226 227 229 226 214 203 199 199 199 201 203 204 207 208 209 210 211 213 215 218 221 218 216 221 221 221 230 242 252 259 275 293 304 313 326 334
233 235 237 239 243 243 242 246 249 251 253 252 253 256 256 253 250 248 248 248 252 256 259 260 259 257 255 252 250 247 245 243 242 239 234 229 226 224 220 217 215 213 213 215 219 223 225 227 227 228 230 229 221 211 205 205 205 203 202 203 205 207 207 209 210 209 209 211 215 214 212 217 219 214 216 225 239 252 257 271 288 298 310 324 338
234 236 237 240 245 246 245 248 251 252 252 252 254 255 256 257 256 256 256 254 256 259 261 261 261 260 257 254 251 249 247 246 244 242 238 233 229 225 220 216 213 212 213 216 220 224 225 226 228 230 228 221 212 208 207 209 210 212 212 211 211 209 206 207 209 210 207 209 212 208 207 216 217 214 219 228 241 251 256 272 287 298 311 323 341
236 236 237 239 243 242 240 245 250 251 249 251 255 255 256 258 258 259 262 261 262 262 262 262 263 263 260 256 255 253 251 250 248 245 240 236 231 226 220 215 213 214 218 221 224 225 223 224 226 224 217 210 206 206 208 208 209 212 215 218 219 218 214 212 211 211 209 211 213 209 210 216 215 215 223 230 237 247 255 272 285 295 309 317 314
234 236 237 236 235 233 231 235 240 241 244 249 253 256 262 266 266 268 269 269 269 268 266 265 266 265 262 259 259 259 257 255 251 246 240 235 231 227 221 216 215 219 225 229 229 225 221 219 217 213 208 205 204 205 206 207 208 210 213 216 219 221 222 222 220 217 214 214 212 211 215 219 215 216 224 228 233 244 256 266 272 280 290 291 288
231 234 233 230 228 228 225 223 225 231 237 244 250 255 264 271 276 278 278 278 277 277 275 271 269 267 265 264 263 262 260 257 253 248 241 235 229 224 221 221 224 229 234 234 229 224 220 215 208 205 204 204 204 205 206 205 206 209 213 215 217 220 222 224 225 225 224 222 219 219 222 222 219 221 227 231 236 243 250 259 263 266 276 284 290
227 228 227 225 225 224 220 216 216 220 229 238 244 248 254 263 271 277 283 284 280 278 279 276 273 271 268 267 266 262 259 256 252 248 242 236 230 226 226 229 233 237 238 235 230 226 220 214 207 203 202 203 205 207 207 205 206 209 212 214 218 221 222 223 223 224 224 225 227 227 227 227 226 227 232 237 242 247 252 260 265 269 282 292 297
223 224 223 222 222 220 216 214 212 213 221 229 235 240 247 255 262 270 282 288 285 282 282 280 277 275 271 267 264 262 261 258 253 249 243 237 232 229 230 233 236 239 238 235 232 227 221 215 210 206 204 205 207 209 209 208 209 211 213 215 218 221 224 225 225 224 225 227 230 229 227 230 230 229 236 244 248 254 258 262 270 279 290 296 300
220 222 222 221 221 218 215 213 212 212 216 222 228 236 244 250 255 260 267 276 281 283 283 281 277 274 270 266 264 263 262 258 253 249 243 237 232 231 233 237 238 239 239 235 230 226 222 217 213 210 210 209 210 211 211 211 212 213 214 217 219 222 225 226 225 226 228 229 230 227 225 230 233 234 241 247 251 257 258 259 269 274 281 291 299
220 221 222 221 219 216 213 212 212 214 216 220 225 232 240 249 256 259 260 264 271 275 278 276 274 271 267 264 263 262 261 258 254 250 245 240 236 235 236 238 238 239 238 233 228 224 222 220 218 216 215 214 213 212 212 214 215 216 216 216 219 222 224 225 223 225 228 227 227 226 226 231 236 239 244 247 250 255 253 255 265 261 260 280 294
221 221 221 219 215 213 211 210 212 216 218 221 225 230 237 245 252 258 261 266 269 272 277 276 274 273 269 265 262 261 260 259 255 252 248 246 242 239 239 238 237 237 233 228 225 224 224 225 224 223 221 219 217 215 215 217 217 217 218 216 217 221 223 222 219 222 226 226 223 225 229 234 238 240 244 246 246 249 251 255 261 256 256 265 274
221 221 222 217 211 210 209 209 211 214 217 221 226 232 240 247 253 256 259 265 269 271 276 276 275 276 274 271 267 262 260 260 258 255 253 251 248 244 241 238 235 233 229 225 225 226 227 228 228 228 226 224 221 218 219 220 220 221 221 218 218 222 224 223 223 223 227 227 226 229 233 236 239 241 244 244 243 247 253 257 257 255 260 264 266
218 218 217 210 205 205 205 206 209 211 213 215 218 226 236 245 255 260 258 259 262 266 272 274 275 275 274 272 270 266 263 263 263 262 261 260 257 250 243 238 235 232 229 227 226 226 227 228 228 228 228 227 224 221 222 224 225 225 225 223 224 227 228 228 228 228 229 231 232 235 237 238 240 241 242 242 243 247 251 255 257 257 261 263 260
207 204 202 196 194 197 199 203 206 207 208 208 209 215 221 227 240 252 254 253 256 263 270 275 278 278 277 276 274 272 270 269 270 271 269 269 266 256 247 242 239 236 234 232 231 230 229 228 227 227 227 228 226 225 225 227 228 229 230 231 232 233 234 233 231 230 229 231 233 235 235 236 239 240 240 241 243 245 246 249 254 256 258 261 259
191 188 187 183 183 187 193 198 200 200 201 202 204 208 210 213 222 231 238 242 247 258 270 277 281 282 282 283 283 283 282 281 281 281 278 276 273 263 254 248 244 243 242 239 237 236 235 233 232 230 229 229 230 229 229 230 230 232 234 235 235 235 236 234 231 228 227 228 230 232 233 234 236 238 240 241 241 243 244 245 249 253 255 259 260
180 177 176 174 176 182 189 192 193 195 197 197 200 203 202 205 212 216 220 222 226 236 249 259 268 274 277 281 285 287 289 288 286 285 283 281 278 271 263 255 249 249 253 251 247 244 242 241 240 238 234 233 234 233 232 232 233 234 234 234 234 235 236 234 229 225 224 226 228 231 232 234 236 238 240 241 242 243 244 244 247 250 254 259 262
172 171 173 172 172 177 183 187 189 191 193 195 196 197 196 199 204 208 211 214 216 223 235 245 256 265 272 279 283 285 288 289 289 288 286 283 279 274 268 259 251 250 256 259 257 254 251 249 249 247 243 240 239 239 237 235 234 234 234 234 235 236 236 233 226 221 223 226 228 231 233 234 237 239 241 242 243 243 244 246 248 251 256 261 264
170 171 172 171 169 169 172 177 182 185 188 192 193 192 192 194 198 202 206 209 211 215 226 241 252 260 268 276 281 284 286 288 289 288 285 283 279 272 266 258 249 243 246 252 255 255 255 255 254 254 251 247 244 241 238 235 233 234 236 236 235 235 234 230 224 221 223 226 228 231 234 236 239 242 242 241 240 241 243 246 247 251 255 259 264
168 168 168 167 166 165 165 167 172 176 180 186 190 191 192 193 194 198 203 208 215 221 229 240 250 258 265 272 277 282 285 285 285 285 284 282 278 271 263 256 245 238 237 241 245 247 249 251 252 252 252 251 247 242 239 237 234 233 235 236 234 232 231 228 224 223 225 228 231 234 237 239 239 239 237 235 236 239 242 244 246 250 252 255 261
164 162 163 163 162 162 161 161 164 168 172 179 183 185 191 195 195 198 203 209 216 224 231 239 244 251 260 269 276 281 282 280 280 282 283 281 278 272 263 254 246 237 233 235 238 240 242 244 247 249 250 251 248 242 239 237 232 230 230 231 231 230 230 230 230 230 231 233 234 236 238 238 237 234 232 232 235 237 239 241 243 246 248 250 255
160 159 159 159 157 157 157 157 159 163 167 174 179 182 188 194 197 202 208 213 216 220 228 237 243 249 259 267 273 276 276 277 279 282 283 282 279 274 265 257 250 242 236 234 235 238 240 242 242 243 243 241 238 234 232 232 229 227 227 227 228 230 231 232 234 236 236 235 235 235 236 235 233 233 232 233 234 235 236 238 240 242 243 243 247
156 154 155 155 153 152 154 155 157 160 162 167 173 177 182 185 189 196 203 210 217 222 226 232 239 247 256 262 264 266 270 276 281 285 289 288 283 278 272 266 259 252 244 240 236 236 237 237 235 234 233 231 230 228 228 228 227 226 226 226 227 230 231 231 233 235 235 234 233 233 233 231 231 231 231 232 233 232 232 233 235 236 235 234 239
149 149 153 155 154 156 155 155 158 161 162 165 167 167 169 176 182 192 202 210 220 228 232 237 242 249 256 260 261 263 270 278 283 286 290 290 287 284 278 273 267 260 252 245 239 235 233 233 232 231 230 230 229 228 227 226 225 225 226 227 228 230 231 231 233 235 236 235 234 233 231 230 230 230 229 230 230 229 228 228 229 230 230 229 235
147 149 154 156 157 160 159 158 161 162 162 167 170 168 167 169 172 186 203 212 224 234 242 248 252 257 263 267 267 267 270 275 279 284 288 289 287 284 279 272 266 260 254 246 239 235 233 232 233 232 232 232 233 232 230 228 227 227 227 228 230 231 231 232 234 236 237 237 236 235 233 232 233 233 232 230 228 226 224 222 222 224 227 229 233
151 152 156 158 160 163 163 163 165 163 161 166 169 166 164 159 153 152 153 157 181 213 234 248 256 262 269 273 276 279 279 278 280 282 285 287 286 284 279 271 266 263 258 249 241 238 237 236 236 236 236 236 237 237 235 233 232 230 229 230 232 233 233 235 237 238 238 238 238 237 235 235 236 238 237 234 229 225 222 220 219 221 224 227 231
157 156 158 160 162 164 164 165 167 166 165 165 165 164 162 156 151 148 141 132 126 122 122 162 250 267 277 283 286 289 289 287 285 284 284 284 283 282 278 273 268 264 254 243 239 240 241 240 240 240 240 241 241 241 239 238 237 235 234 234 237 238 239 240 240 240 241 240 239 238 237 236 236 237 238 236 232 228 226 224 222 221 222 224 227
159 159 160 161 161 162 163 164 164 163 162 161 159 159 158 155 153 151 148 146 144 133 118 88 34 7 346 336 320 308 301 294 289 288 287 285 284 282 280 276 270 260 249 242 242 244 244 244 245 245 245 246 245 244 242 241 240 239 238 238 240 241 243 243 241 241 241 239 238 236 236 235 233 232 232 231 230 229 229 227 223 219 218 222 226
152 152 154 156 155 152 152 153 154 153 152 151 150 149 147 144 144 141 141 144 141 128 102 46 13 358 359 4 0 351 338 314 298 293 293 293 293 288 277 266 256 249 244 244 247 248 248 250 251 251 251 251 250 248 247 246 245 243 242 241 241 242 242 242 242 242 240 238 237 236 234 233 232 230 229 229 227 226 225 224 222 219 219 221 224
142 139 139 143 143 141 142 145 146 145 144 142 140 139 135 130 127 124 120 113 95 71 50 25 359 353 7 15 10 8 6 349 324 305 293 289 288 277 262 256 253 251 248 248 250 252 254 255 256 257 257 256 255 254 252 251 251 249 247 246 244 243 242 242 243 244 241 239 238 237 234 233 232 230 228 227 226 226 226 225 223 221 221 221 223
144 141 139 142 142 141 141 142 142 141 140 137 136 133 126 120 118 112 103 96 84 52 17 358 352 0 19 24 12 359 354 349 341 326 299 279 267 257 254 257 259 258 257 257 257 258 260 261 261 262 261 260 259 258 257 256 255 253 251 249 247 246 246 246 247 246 244 241 240 237 235 234 233 230 226 225 225 225 226 226 224 223 222 222 221
148 147 146 145 145 143 142 141 140 140 138 133 129 125 118 113 110 104 101 101 84 29 10 2 359 3 10 10 0 344 336 336 343 343 332 309 277 261 258 259 260 260 262 263 264 265 266 267 268 268 267 266 264 262 260 259 258 256 254 252 250 250 250 250 249 248 246 243 240 238 236 235 233 230 226 225 224 224 224 223 222 221 220 218 217
145 145 145 144 143 142 140 139 137 136 134 131 128 126 124 121 116 111 108 101 70 31 11 353 348 351 345 336 334 326 317 318 325 327 322 313 299 283 272 267 264 264 266 269 270 270 271 273 274 274 273 272 270 267 265 263 261 260 258 255 252 252 250 249 248 247 245 243 240 238 236 235 233 231 227 226 226 225 223 222 220 218 216 215 215
143 142 144 143 141 138 137 137 136 135 134 132 129 127 127 124 121 121 120 109 82 32 335 316 320 326 318 311 314 310 303 304 307 305 297 291 288 285 281 277 274 273 274 275 277 277 276 277 278 277 276 275 274 272 270 268 266 264 262 258 254 253 252 251 250 248 246 245 242 239 237 236 234 231 229 228 228 227 225 223 221 218 217 216 216
141 140 141 140 139 138 137 135 134 132 132 130 128 125 123 122 124 129 128 120 107 322 303 302 309 315 309 309 314 307 297 298 303 303 298 291 285 281 279 278 279 281 282 283 284 285 285 284 284 283 282 281 279 277 275 273 271 268 264 261 258 256 255 254 252 250 249 247 244 241 240 238 235 232 231 231 230 229 226 225 222 219 217 217 216
138 137 136 136 136 135 130 127 127 127 126 126 125 123 124 127 128 128 123 119 127 291 295 300 310 317 313 314 316 306 296 297 301 301 301 299 294 289 286 283 282 283 283 285 288 291 292 292 290 289 288 287 286 284 281 277 274 271 267 263 260 258 257 256 255 254 252 250 247 245 243 241 238 235 234 233 231 228 226 224 221 217 215 214 213
135 133 132 131 129 126 122 122 125 124 123 124 125 125 128 129 126 122 120 122 177 280 293 300 308 314 312 310 308 303 300 301 300 300 301 301 299 298 296 295 293 292 289 287 287 289 290 292 292 291 290 290 290 290 288 285 281 275 270 266 263 260 259 258 257 256 255 253 252 250 247 244 241 238 235 233 230 227 224 221 218 215 213 212 210
132 130 128 127 125 123 122 124 125 123 124 127 126 123 122 121 120 126 138 166 249 275 290 299 304 307 307 307 307 306 307 307 305 302 301 300 297 297 297 296 296 294 291 289 288 288 288 290 290 291 291 291 290 289 289 289 288 283 277 271 266 264 262 260 259 260 260 259 257 255 250 246 242 239 235 232 229 226 223 220 217 213 211 208 206
131 130 129 128 127 126 126 126 126 126 128 127 123 120 117 114 118 136 185 252 268 277 288 295 296 298 301 305 308 309 309 309 307 304 302 300 298 297 298 299 298 297 295 294 294 293 292 292 292 292 293 293 292 290 289 289 290 289 285 279 274 270 268 267 267 267 266 264 260 257 252 248 244 240 236 233 229 225 223 220 216 212 209 206 205
131 130 129 129 128 128 127 126 126 127 127 127 128 129 133 137 146 177 233 261 273 281 287 291 293 295 299 304 307 309 309 310 309 308 307 306 304 303 303 303 302 302 302 303 303 302 301 299 298 297 297 296 297 296 294 292 291 289 288 285 282 278 276 275 275 274 273 269 266 261 256 252 248 243 238 234 229 226 223 220 216 213 209 207 206
131 129 129 128 127 126 126 127 128 129 131 135 138 142 152 169 193 223 247 260 270 278 286 293 298 300 303 306 308 309 311 312 311 310 309 308 308 308 308 307 307 307 307 307 306 305 304 302 300 299 298 297 298 298 297 296 294 291 289 288 286 284 282 279 277 275 274 273 270 265 259 255 251 246 241 235 229 224 221 218 215 213 210 208 207
129 128 127 127 127 127 129 131 132 133 138 142 147 153 167 190 213 235 251 262 270 279 288 298 303 303 305 308 310 310 310 309 308 307 307 307 308 309 307 306 306 306 305 304 303 302 302 301 300 299 298 298 299 299 298 298 297 295 294 292 289 287 286 284 280 275 273 273 272 268 263 259 255 249 242 235 229 223 219 215 213 211 209 207 206
126 125 125 127 127 129 131 133 136 141 147 154 165 176 193 219 237 249 261 273 282 291 299 308 313 314 314 314 312 309 308 307 307 308 308 309 310 310 308 308 309 309 307 307 307 307 306 306 304 303 302 302 301 301 300 299 299 299 297 295 293 291 289 288 284 280 276 274 272 269 266 261 256 251 244 236 228 223 218 214 212 209 207 204 203
125 123 124 127 128 131 134 137 142 150 160 173 190 199 214 236 254 269 282 289 296 302 306 311 315 314 311 308 304 303 304 306 307 307 307 309 310 311 311 311 312 311 311 310 310 310 310 310 309 308 308 307 306 305 304 302 302 301 300 299 298 296 293 290 286 281 277 274 272 269 266 262 256 250 243 235 226 220 216 213 210 207 205 203 201
121 120 123 126 129 133 139 143 149 162 174 188 206 224 243 265 281 291 293 294 299 305 306 306 305 299 296 298 300 301 303 305 305 304 305 308 310 312 313 313 312 311 311 312 312 313 314 314 313 312 312 310 309 308 306 305 305 304 303 302 301 300 297 293 288 282 276 274 272 269 265 259 252 245 238 230 222 216 213 211 209 206 204 202 200